Location: Santa Teresa Spring
(37.2333°N, 121.7000°W)
Time: 12:23:05
(UTC-07:00)

ISS - Visible Passes

Search period start: 21 September 2017 00:00
Search period end: 01 October 2017 00:00
Orbit: 401 x 407 km, 51.6° (Epoch: 22 September)

Date Brightness Start Highest point End Pass type
(mag) Time Alt. Az. Time Alt. Az. Time Alt. Az.
21 Sep -3.7 05:16:02 63° SSE 05:16:02 63° SSE 05:18:52 10° SE visible
22 Sep -1.8 05:59:52 14° SW 05:59:52 14° SW 06:01:14 10° SSW visible
23 Sep -2.5 20:06:36 10° S 20:09:01 23° SE 20:09:01 23° SE visible
24 Sep -2.8 20:49:58 10° WSW 20:52:28 45° W 20:52:28 45° W visible
25 Sep -3.9 19:57:39 10° SW 20:00:52 64° SE 20:02:58 20° ENE visible
25 Sep -0.3 21:35:22 10° WNW 21:35:40 11° WNW 21:35:40 11° WNW visible
26 Sep -1.9 20:42:15 10° W 20:45:05 26° NNW 20:45:56 23° N visible
27 Sep -2.9 19:49:26 10° WSW 19:52:36 47° NW 19:55:47 10° NE visible
28 Sep -1.1 20:35:04 10° WNW 20:37:03 15° NNW 20:38:37 12° N visible
29 Sep -1.6 19:41:47 10° W 19:44:26 22° NNW 19:47:06 10° NNE visible
